FW9243 Weather Reports


time (UTC)temp
C
wind
direction
speed
KPH
gust
KPH
rain 1hr
cm
rain 24hr
cm
rain mn
cm
humidity
%
barometer
mb
20260508122343 17 213 1.6 9.7 0.00 0.00 0.00 63 1008.3
20260508121622 17 230 1.6 9.7 0.00 0.00 0.00 63 1008.2
20260508121537 17 217 3.2 8.0 0.00 0.00 0.00 63 1008.7
20260508121122 17 210 3.2 4.8 0.00 0.00 0.00 62 1008.3
20260508120621 17 223 3.2 4.8 0.00 0.00 0.00 63 1008.3
20260508120123 17 223 1.6 6.4 0.00 0.00 0.00 64 1008.4
20260508120035 17 34 0.0 4.8 0.00 0.00 0.00 86 1008.9
20260508115621 17 209 3.2 8.0 0.00 0.00 0.00 64 1008.4
20260508115122 17 216 3.2 8.0 0.00 0.00 0.00 63 1008.3
20260508114851 17 189 3.2 8.0 0.00 0.00 0.00 66 1008.4
20260508114541 17 265 1.6 6.4 0.00 0.00 0.00 86 1008.9
20260508114123 17 157 3.2 8.0 0.00 0.00 0.00 67 1008.3
20260508113622 17 241 1.6 4.8 0.00 0.00 0.00 65 1008.2
20260508113348 17 269 3.2 6.4 0.00 0.00 0.00 67 1008.2
20260508113043 17 164 1.6 6.4 0.00 0.00 0.00 70 1008.8
20260508112620 17 135 3.2 9.7 0.00 0.00 0.00 68 1008.2
20260508112122 17 135 3.2 9.7 0.00 0.00 0.00 68 1008.3
20260508111620 17 314 1.6 4.8 0.00 0.00 0.00 71 1008.3
20260508111539 16 64 1.6 4.8 0.00 0.00 0.00 71 1008.9
20260508111121 17 228 3.2 8.0 0.00 0.00 0.00 71 1008.4
20260508110840 16 45 3.2 8.0 0.00 0.00 0.00 70 1008.6
20260508110121 16 135 1.6 8.0 0.00 0.00 0.00 71 1008.7
20260508110040 16 0 1.6 4.8 0.00 0.00 0.00 71 1009.1
20260508105838 16 128 3.2 4.8 0.00 0.00 0.00 72 1008.6
20260508105121 16 168 3.2 11.3 0.00 0.00 0.00 73 1008.6
20260508104620 16 223 4.8 11.3 0.00 0.00 0.00 73 1008.7
20260508104602 16 0 1.6 3.2 0.00 0.00 0.00 93 1009.2
20260508104121 16 241 3.2 4.8 0.00 0.00 0.00 74 1008.7
20260508103842 16 206 1.6 8.0 0.00 0.00 0.00 74 1008.8
20260508103121 16 135 3.2 8.0 0.00 0.00 0.00 73 1008.8
20260508103044 15 157 3.2 6.4 0.00 0.00 0.00 92 1009.3
20260508102620 16 178 1.6 3.2 0.00 0.00 0.00 75 1008.8
20260508102121 16 145 1.6 6.4 0.00 0.00 0.00 76 1008.7
20260508102102 16 245 3.2 6.4 0.00 0.00 0.00 76 1008.6
20260508101538 15 196 1.6 4.8 0.00 0.00 0.00 75 1009.2
20260508101121 15 164 3.2 4.8 0.00 0.00 0.00 76 1008.7
20260508100619 15 152 1.6 6.4 0.00 0.00 0.00 77 1008.7
20260508100340 15 196 3.2 6.4 0.00 0.00 0.00 77 1008.6
20260508100039 15 137 1.6 6.4 0.00 0.00 0.00 76 1009.0
20260508095836 15 142 3.2 4.8 0.00 0.00 0.00 78 1008.6
20260508095349 15 234 1.6 4.8 0.00 0.00 0.00 76 1008.6
20260508094619 15 178 3.2 4.8 0.00 0.00 0.00 76 1008.6
20260508094544 15 169 1.6 3.2 0.00 0.00 0.00 76 1009.1
20260508094120 15 269 3.2 4.8 0.00 0.00 0.00 76 1008.6
20260508093618 15 178 1.6 4.8 0.00 0.00 0.00 79 1008.6
20260508093120 15 206 1.6 4.8 0.00 0.00 0.00 79 1008.6
20260508093037 14 205 1.6 3.2 0.00 0.00 0.00 79 1009.1
20260508092619 14 89 1.6 6.4 0.00 0.00 0.00 80 1008.7
20260508092119 14 137 3.2 6.4 0.00 0.00 0.00 80 1008.6
20260508091619 14 206 3.2 4.8 0.00 0.00 0.00 82 1008.6
20260508091535 13 229 1.6 3.2 0.00 0.00 0.00 100 1009.1
20260508091119 13 178 1.6 4.8 0.00 0.00 0.00 83 1008.6
20260508090618 13 152 1.6 4.8 0.00 0.00 0.00 84 1008.5
20260508090349 13 1 1.6 4.8 0.00 0.00 0.00 84 1008.5
20260508090050 13 0 0.0 3.2 0.00 0.00 0.00 100 1009.0
20260508085618 13 1 1.6 4.8 0.00 0.00 0.00 84 1008.6
20260508085119 13 269 1.6 4.8 0.00 0.00 0.00 85 1008.6
20260508085109 13 223 1.6 4.8 0.00 0.00 0.00 85 1008.6
20260508084540 13 142 3.2 3.2 0.00 0.00 0.00 100 1009.1
20260508084118 13 178 1.6 4.8 0.00 0.00 0.00 86 1008.6
20260508083836 13 223 1.6 4.8 0.00 0.00 0.00 85 1008.3
20260508083118 13 51 3.2 4.8 0.00 0.00 0.00 86 1008.2
20260508083056 12 64 0.0 3.2 0.00 0.00 0.00 100 1008.8
20260508082617 13 109 1.6 4.8 0.00 0.00 0.00 87 1008.4
20260508082118 13 28 1.6 4.8 0.00 0.00 0.00 87 1008.4
20260508081617 12 145 1.6 4.8 0.00 0.00 0.00 87 1008.5
20260508081552 12 93 1.6 1.6 0.00 0.00 0.00 100 1008.9
20260508081118 12 241 1.6 3.2 0.00 0.00 0.00 88 1008.6
20260508080833 12 314 1.6 3.2 0.00 0.00 0.00 88 1008.6
20260508080117 12 145 1.6 3.2 0.00 0.00 0.00 88 1008.5
20260508080041 12 0.0 1.6 0.00 0.00 0.00 100 1009.0
20260508075616 12 216 1.6 4.8 0.00 0.00 0.00 88 1008.5
20260508075117 12 269 1.6 4.8 0.00 0.00 0.00 88 1008.2
20260508074835 12 1 3.2 3.2 0.00 0.00 0.00 88 1008.3
20260508074534 12 61 1.6 4.8 0.00 0.00 0.00 100 1008.8
20260508074117 12 89 1.6 6.4 0.00 0.00 0.00 88 1008.4
20260508073616 12 135 1.6 6.4 0.00 0.00 0.00 88 1008.4
20260508073117 12 104 3.2 4.8 0.00 0.00 0.00 88 1008.4
20260508073036 12 61 3.2 3.2 0.00 0.00 0.00 100 1008.9
20260508072616 12 1 1.6 6.4 0.00 0.00 0.00 89 1008.4
20260508072117 12 140 3.2 6.4 0.00 0.00 0.00 89 1008.5
20260508071616 12 45 1.6 4.8 0.00 0.00 0.00 89 1008.5
20260508071536 11 51 1.6 3.2 0.00 0.00 0.00 100 1008.9
20260508071117 12 56 1.6 4.8 0.00 0.00 0.00 89 1008.5
20260508070615 12 223 3.2 4.8 0.00 0.00 0.00 89 1008.4
20260508070124 11 57 1.6 4.8 0.00 0.00 0.00 100 1008.9
20260508070117 11 197 1.6 4.8 0.00 0.00 0.00 89 1008.4
20260508065615 11 168 3.2 4.8 0.00 0.00 0.00 89 1008.4
20260508065116 11 89 1.6 3.2 0.00 0.00 0.00 89 1008.3
20260508064835 11 178 1.6 4.8 0.00 0.00 0.00 89 1008.2
20260508064540 11 0 1.6 3.2 0.00 0.00 0.00 100 1008.7
20260508064116 11 157 1.6 6.4 0.00 0.00 0.00 89 1008.2
20260508063836 11 124 3.2 6.4 0.00 0.00 0.00 89 1008.2
20260508063115 11 45 1.6 1.6 0.00 0.00 0.00 89 1008.2
20260508063038 11 239 0.0 1.6 0.00 0.00 0.00 100 1008.6
20260508062614 11 45 1.6 3.2 0.00 0.00 0.00 89 1008.0
20260508062115 11 1 1.6 3.2 0.00 0.00 0.00 89 1007.9
20260508061614 11 20 1.6 3.2 0.00 0.00 0.00 89 1007.8
20260508061554 11 89 1.6 3.2 0.00 0.00 0.00 89 1007.8
20260508061539 11 51 1.6 1.6 0.00 0.00 0.00 100 1008.3
20260508060613 11 296 1.6 3.2 0.00 0.00 0.00 89 1007.6
20260508060115 11 32 1.6 4.8 0.00 0.00 0.00 89 1007.5
20260508060039 11 47 1.6 3.2 0.00 0.00 0.00 100 1008.1
20260508055613 11 168 3.2 4.8 0.00 0.00 0.00 89 1007.6
20260508055335 11 28 1.6 3.2 0.00 0.00 0.00 89 1007.6
20260508054614 11 145 1.6 4.8 0.00 0.00 0.00 89 1007.6
20260508054542 11 221 1.6 3.2 0.00 0.00 0.00 100 1008.1
20260508054115 11 63 3.2 4.8 0.00 0.00 0.00 89 1007.5
20260508053837 11 121 1.6 3.2 0.00 0.00 0.00 89 1007.6
20260508053114 11 135 1.6 3.2 0.00 0.00 0.00 89 1007.6
20260508053039 11 93 1.6 3.2 0.00 0.00 0.00 100 1008.1
20260508052612 11 45 1.6 4.8 0.00 0.00 0.00 89 1007.6
20260508052114 11 63 3.2 4.8 0.00 0.00 0.00 89 1007.7
20260508051613 11 135 1.6 4.8 0.00 0.00 0.00 89 1007.7
20260508051539 11 51 1.6 1.6 0.00 0.00 0.00 100 1008.2
20260508051114 11 168 1.6 4.8 0.00 0.00 0.00 88 1007.7
20260508050613 11 63 1.6 4.8 0.00 0.00 0.00 88 1007.7
20260508050114 11 1 1.6 3.2 0.00 0.00 0.00 88 1007.8
20260508050039 11 282 0.0 1.6 0.00 0.00 0.00 100 1008.3
20260508045612 11 331 1.6 3.2 0.00 0.00 0.00 88 1007.7
20260508045113 11 16 1.6 3.2 0.00 0.00 0.00 88 1007.7
20260508044612 11 290 1.6 3.2 0.00 0.00 0.00 88 1007.7
20260508044539 11 0 0.0 3.2 0.00 0.00 0.00 100 1008.2
20260508044113 11 241 0.0 3.2 0.00 0.00 0.00 88 1007.6
20260508043612 11 89 0.0 4.8 0.00 0.00 0.00 88 1007.6
20260508043113 11 193 1.6 4.8 0.00 0.00 0.00 88 1007.6
20260508043056 11 0 0.0 1.6 0.00 0.00 0.00 100 1008.2
20260508042611 11 135 1.6 3.2 0.00 0.00 0.00 88 1007.6
20260508042113 11 178 1.6 3.2 0.00 0.00 0.00 88 1007.6
20260508041612 11 135 1.6 3.2 0.00 0.00 0.00 88 1007.6
20260508041537 11 93 0.0 1.6 0.00 0.00 0.00 100 1008.2
20260508041112 11 89 1.6 3.2 0.00 0.00 0.00 88 1007.6
20260508040611 11 56 1.6 3.2 0.00 0.00 0.00 88 1007.6
20260508040113 11 45 0.0 3.2 0.00 0.00 0.00 88 1007.7
20260508040038 11 57 0.0 1.6 0.00 0.00 0.00 100 1008.1
20260508035611 11 89 0.0 3.2 0.00 0.00 0.00 89 1007.7
20260508035112 11 16 1.6 3.2 0.00 0.00 0.00 88 1007.8
20260508034611 11 45 0.0 3.2 0.00 0.00 0.00 88 1007.8
20260508034540 11 0 1.6 3.2 0.00 0.00 0.00 100 1008.3
20260508034333 11 63 1.6 4.8 0.00 0.00 0.00 89 1007.8
20260508033611 11 117 1.6 4.8 0.00 0.00 0.00 89 1007.8
20260508033111 11 161 3.2 4.8 0.00 0.00 0.00 89 1007.8
20260508033039 11 115 1.6 3.2 0.00 0.00 0.00 100 1008.5
20260508032611 11 1 1.6 4.8 0.00 0.00 0.00 89 1008.0
20260508032112 11 76 1.6 4.8 0.00 0.00 0.00 89 1008.0
20260508031829 11 149 1.6 4.8 0.00 0.00 0.00 89 1008.0
20260508031550 11 93 1.6 3.2 0.00 0.00 0.00 100 1008.5
20260508031111 11 89 1.6 3.2 0.00 0.00 0.00 89 1008.0
20260508030610 11 117 1.6 3.2 0.00 0.00 0.00 89 1007.9
20260508030333 11 178 1.6 3.2 0.00 0.00 0.00 89 1007.9
20260508030048 11 51 0.0 1.6 0.00 0.00 0.00 100 1008.4
20260508025828 11 152 1.6 3.2 0.00 0.00 0.00 89 1007.8
20260508025111 11 56 1.6 4.8 0.00 0.00 0.00 89 1007.8
20260508024609 11 178 1.6 4.8 0.00 0.00 0.00 90 1007.9
20260508024536 11 165 1.6 1.6 0.00 0.00 0.00 100 1008.3
20260508024111 11 165 1.6 3.2 0.00 0.00 0.00 90 1007.9
20260508023609 11 178 1.6 3.2 0.00 0.00 0.00 90 1007.8
20260508023555 11 89 1.6 3.2 0.00 0.00 0.00 89 1007.8
20260508023041 11 76 1.6 1.6 0.00 0.00 0.00 100 1008.3
20260508022609 11 45 0.0 1.6 0.00 0.00 0.00 89 1007.9
20260508022332 11 269 0.0 3.2 0.00 0.00 0.00 89 1007.9
20260508021609 11 231 1.6 3.2 0.00 0.00 0.00 89 1008.0
20260508021537 11 0 0.0 1.6 0.00 0.00 0.00 100 1008.5
20260508021110 11 45 0.0 3.2 0.00 0.00 0.00 89 1008.0
20260508020609 11 35 1.6 3.2 0.00 0.00 0.00 89 1007.9
20260508020329 11 79 1.6 3.2 0.00 0.00 0.00 89 1007.9
20260508020038 11 0 0.0 3.2 0.00 0.00 0.00 100 1008.5
20260508015608 11 178 1.6 3.2 0.00 0.00 0.00 90 1007.9
20260508015109 11 117 1.6 3.2 0.00 0.00 0.00 90 1008.0
20260508014608 11 117 1.6 3.2 0.00 0.00 0.00 90 1008.1
20260508014539 11 76 1.6 1.6 0.00 0.00 0.00 100 1008.6
20260508014109 11 45 1.6 3.2 0.00 0.00 0.00 90 1008.2
20260508013608 11 178 1.6 3.2 0.00 0.00 0.00 90 1008.3
20260508013111 11 45 1.6 4.8 0.00 0.00 0.00 90 1008.3
20260508013035 11 120 0.0 3.2 0.00 0.00 0.00 100 1008.8
20260508012607 11 152 1.6 4.8 0.00 0.00 0.00 90 1008.3
20260508012109 11 145 0.0 3.2 0.00 0.00 0.00 90 1008.3
20260508011607 11 269 0.0 3.2 0.00 0.00 0.00 90 1008.3
20260508011538 11 178 1.6 1.6 0.00 0.00 0.00 100 1008.9
20260508011108 11 1 0.0 1.6 0.00 0.00 0.00 90 1008.4
20260508010608 11 63 0.0 3.2 0.00 0.00 0.00 90 1008.4
20260508010108 11 152 0.0 3.2 0.00 0.00 0.00 90 1008.5
20260508010039 11 214 1.6 3.2 0.00 0.00 0.00 100 1009.0
20260508005607 11 45 1.6 3.2 0.00 0.00 0.00 90 1008.5
20260508005109 11 45 0.0 3.2 0.00 0.00 0.00 90 1008.6
20260508004607 11 145 0.0 1.6 0.00 0.00 0.00 90 1008.7
20260508004538 11 0 0.0 1.6 0.00 0.00 0.00 100 1009.1
20260508004330 11 241 1.6 3.2 0.00 0.00 0.00 90 1008.7
20260508003607 11 28 1.6 3.2 0.00 0.00 0.00 90 1008.7
20260508003108 11 45 0.0 3.2 0.00 0.00 0.00 89 1008.7
20260508003034 11 0 0.0 1.6 0.00 0.00 0.00 100 1009.3
20260508002825 11 223 1.6 3.2 0.00 0.00 0.00 90 1008.8
20260508002108 11 45 0.0 3.2 0.00 0.00 0.00 90 1008.9
20260508001606 11 269 1.6 3.2 0.00 0.00 0.00 90 1009.0
20260508001535 11 0 0.0 1.6 0.00 0.00 0.00 100 1009.4
20260508001108 11 161 1.6 3.2 0.00 0.00 0.00 90 1008.8
20260508000606 11 314 0.0 3.2 0.00 0.00 0.00 90 1008.9
20260508000107 11 148 1.6 4.8 0.00 0.00 0.00 90 1008.9
20260508000035 11 0 0.0 3.2 0.00 0.00 0.00 100 1009.4
20260507235606 11 142 0.0 4.8 0.00 0.00 0.00 90 1009.0
20260507235107 11 117 1.6 3.2 0.00 0.00 0.00 90 1008.9
20260507234606 11 83 1.6 3.2 0.00 0.00 0.00 90 1009.1
20260507234542 11 80 1.6 3.2 0.00 0.00 0.00 100 1009.6
20260507234107 11 66 1.6 4.8 0.00 0.00 0.00 91 1009.1
20260507233605 11 76 3.2 4.8 0.00 0.00 0.00 91 1009.2
20260507233329 11 178 1.6 4.8 0.00 0.00 0.00 91 1009.2
20260507233037 11 93 3.2 4.8 0.00 0.00 0.00 100 1009.7
20260507232606 11 223 1.6 4.8 0.00 0.00 0.00 91 1009.2
20260507232107 11 140 1.6 4.8 0.00 0.00 0.00 91 1009.2
20260507231605 11 31 1.6 3.2 0.00 0.00 0.00 91 1009.3
20260507231533 11 0 1.6 3.2 0.00 0.00 0.00 100 1009.8
20260507231106 11 45 1.6 3.2 0.00 0.00 0.00 91 1009.3
20260507230605 11 45 0.0 3.2 0.00 0.00 0.00 91 1009.3
20260507230106 11 135 1.6 4.8 0.00 0.00 0.00 91 1009.4
20260507230039 12 76 0.0 3.2 0.00 0.00 0.00 100 1009.9
20260507225604 11 54 1.6 4.8 0.00 0.00 0.00 91 1009.4
20260507225106 11 45 1.6 3.2 0.00 0.00 0.00 90 1009.4
20260507224604 12 89 1.6 3.2 0.00 0.00 0.00 90 1009.5
20260507224539 12 80 1.6 1.6 0.00 0.00 0.00 100 1010.0
20260507224325 12 89 1.6 3.2 0.00 0.00 0.00 90 1009.6
20260507223828 12 135 1.6 3.2 0.00 0.00 0.00 90 1009.6
20260507223105 12 72 1.6 3.2 0.00 0.00 0.00 90 1009.7
20260507223038 12 0 0.0 3.2 0.00 0.00 0.00 100 1010.2
20260507222828 12 89 1.6 3.2 0.00 0.00 0.00 90 1009.7
20260507222105 12 89 1.6 3.2 0.00 0.00 0.00 89 1009.7
20260507221604 12 152 1.6 3.2 0.00 0.00 0.00 88 1009.8
20260507221535 12 137 0.0 1.6 0.00 0.00 0.00 100 1010.4
20260507221104 12 213 1.6 3.2 0.00 0.00 0.00 88 1009.8
20260507220603 12 135 0.0 1.6 0.00 0.00 0.00 88 1009.8
20260507220107 12 178 1.6 1.6 0.00 0.00 0.00 88 1009.9
20260507220036 -17 0 0.0 1.6 0.00 0.00 0.00 100 1010.3
20260507215603 12 223 0.0 1.6 0.00 0.00 0.00 88 1009.8
20260507215104 13 178 0.0 1.6 0.00 0.00 0.00 88 1009.8
20260507214603 13 45 0.0 1.6 0.00 0.00 0.00 88 1009.8
20260507214534 -17 205 1.6 1.6 0.00 0.00 0.00 1010.3
20260507214104 13 178 0.0 1.6 0.00 0.00 0.00 88 1009.8
20260507213602 13 135 0.0 1.6 0.00 0.00 0.00 87 1009.8
20260507213103 13 161 0.0 1.6 0.00 0.00 0.00 87 1009.8
20260507213038 13 0 0.0 0.0 0.00 0.00 0.00 100 1010.3
20260507212602 13 223 0.0 1.6 0.00 0.00 0.00 86 1009.8
20260507212103 13 152 0.0 1.6 0.00 0.00 0.00 86 1009.8
20260507211603 13 135 0.0 1.6 0.00 0.00 0.00 86 1009.7
20260507211538 13 0 0.0 1.6 0.00 0.00 0.00 100 1010.2
20260507211105 13 117 0.0 1.6 0.00 0.00 0.00 86 1009.7
20260507210602 13 178 0.0 1.6 0.00 0.00 0.00 86 1009.7
20260507210104 13 152 0.0 1.6 0.00 0.00 0.00 85 1009.6
20260507210034 14 0 0.0 0.0 0.00 0.00 0.00 100 1010.1
20260507205820 13 135 0.0 3.2 0.00 0.00 0.00 85 1009.6
20260507205103 13 109 1.6 3.2 0.00 0.00 0.00 85 1009.5
20260507204602 13 117 1.6 1.6 0.00 0.00 0.00 85 1009.5
20260507204538 14 0 1.6 3.2 0.00 0.00 0.00 100 1009.9
20260507204101 14 89 1.6 1.6 0.00 0.00 0.00 84 1009.4
20260507203602 14 89 0.0 1.6 0.00 0.00 0.00 83 1009.4
20260507203329 14 89 0.0 1.6 0.00 0.00 0.00 83 1009.4
20260507203035 14 0 0.0 0.0 0.00 0.00 0.00 100 1009.9
20260507202824 14 223 0.0 1.6 0.00 0.00 0.00 82 1009.3
20260507202102 14 117 0.0 1.6 0.00 0.00 0.00 82 1009.2
20260507201601 15 135 0.0 1.6 0.00 0.00 0.00 81 1009.2
20260507201541 15 0 0.0 1.6 0.00 0.00 0.00 100 1009.7
20260507201102 15 223 0.0 1.6 0.00 0.00 0.00 79 1009.2
20260507200824 15 145 0.0 1.6 0.00 0.00 0.00 79 1009.2
20260507200046 15 0 0.0 0.0 0.00 0.00 0.00 99 1009.6
20260507195601 15 135 0.0 3.2 0.00 0.00 0.00 78 1009.0
20260507195102 15 178 0.0 3.2 0.00 0.00 0.00 78 1009.0
20260507194600 15 206 0.0 3.2 0.00 0.00 0.00 78 1009.0
20260507194544 16 0.0 1.6 0.00 0.00 0.00 78 1009.5
20260507194101 16 165 1.6 1.6 0.00 0.00 0.00 78 1009.0
20260507193600 16 161 0.0 1.6 0.00 0.00 0.00 78 1009.0
20260507193101 16 161 1.6 1.6 0.00 0.00 0.00 78 1008.9
20260507193034 16 196 1.6 1.6 0.00 0.00 0.00 96 1009.4
20260507192600 16 223 1.6 1.6 0.00 0.00 0.00 77 1009.0
20260507192103 16 223 0.0 1.6 0.00 0.00 0.00 77 1009.0
20260507191600 16 223 1.6 1.6 0.00 0.00 0.00 76 1009.0
20260507191537 17 0 0.0 1.6 0.00 0.00 0.00 96 1009.4
20260507191100 16 89 1.6 1.6 0.00 0.00 0.00 76 1008.9
20260507190559 16 223 0.0 1.6 0.00 0.00 0.00 75 1009.1
20260507190101 16 45 0.0 1.6 0.00 0.00 0.00 74 1009.0
20260507190039 17 0.0 1.6 0.00 0.00 0.00 73 1009.4
20260507185559 17 28 0.0 3.2 0.00 0.00 0.00 74 1009.0
20260507185101 17 324 1.6 3.2 0.00 0.00 0.00 73 1009.0
20260507184819 17 28 0.0 1.6 0.00 0.00 0.00 73 1009.1
20260507184543 17 0 0.0 1.6 0.00 0.00 0.00 71 1009.5
20260507184100 17 135 0.0 1.6 0.00 0.00 0.00 72 1009.0
20260507183559 17 89 0.0 3.2 0.00 0.00 0.00 72 1008.9
20260507183100 17 135 0.0 3.2 0.00 0.00 0.00 72 1009.1
20260507183045 17 0 0.0 3.2 0.00 0.00 0.00 71 1009.6
20260507182558 17 1 1.6 4.8 0.00 0.00 0.00 71 1009.0
20260507182323 17 337 1.6 4.8 0.00 0.00 0.00 71 1009.0
20260507181559 17 314 1.6 4.8 0.00 0.00 0.00 70 1009.1
20260507181540 17 309 1.6 4.8 0.00 0.00 0.00 90 1009.5
20260507181059 17 330 3.2 6.4 0.00 0.00 0.00 70 1009.0
20260507180819 17 269 3.2 6.4 0.00 0.00 0.00 70 1008.9
20260507180059 18 331 1.6 8.0 0.00 0.00 0.00 70 1008.9
20260507180038 17 303 1.6 3.2 0.00 0.00 0.00 69 1009.4
20260507175558 18 314 3.2 8.0 0.00 0.00 0.00 70 1008.9
20260507175317 18 230 3.2 6.4 0.00 0.00 0.00 71 1008.9
20260507174600 18 283 3.2 8.0 0.00 0.00 0.00 70 1008.9
20260507174535 18 316 3.2 4.8 0.00 0.00 0.00 69 1009.4
20260507174059 18 223 4.8 11.3 0.00 0.00 0.00 69 1008.9
20260507173811 18 310 4.8 16.1 0.00 0.00 0.00 69 1008.8
20260507173756 18 338 6.4 11.3 0.00 0.00 0.00 69 1008.8
20260507173040 18 254 1.6 9.7 0.00 0.00 0.00 67 1009.2
20260507172820 18 45 8.0 16.1 0.00 0.00 0.00 68 1008.7
20260507172058 18 310 3.2 9.7 0.00 0.00 0.00 68 1008.6
20260507171557 18 289 4.8 9.7 0.00 0.00 0.00 67 1008.5
20260507171542 18 287 4.8 9.7 0.00 0.00 0.00 66 1008.9
20260507171058 18 347 3.2 9.7 0.00 0.00 0.00 67 1008.4
20260507171042 18 330 4.8 8.0 0.00 0.00 0.00 67 1008.4
20260507170320 18 251 4.8 11.3 0.00 0.00 0.00 67 1008.4
20260507170038 18 82 4.8 4.8 0.00 0.00 0.00 66 1008.9
20260507165557 18 354 6.4 11.3 0.00 0.00 0.00 68 1008.5
20260507165058 18 241 3.2 8.0 0.00 0.00 0.00 68 1008.5
20260507164819 18 327 3.2 8.0 0.00 0.00 0.00 69 1008.6
20260507164541 18 43 3.2 4.8 0.00 0.00 0.00 69 1009.1
20260507164058 18 327 3.2 6.4 0.00 0.00 0.00 71 1008.7
20260507163557 18 269 3.2 4.8 0.00 0.00 0.00 70 1008.9
20260507163057 18 28 1.6 4.8 0.00 0.00 0.00 69 1009.0
20260507163042 17 56 1.6 3.2 0.00 0.00 0.00 89 1009.5
20260507162555 18 28 3.2 6.4 0.00 0.00 0.00 69 1009.1
20260507162057 18 45 1.6 8.0 0.00 0.00 0.00 69 1009.0
20260507161556 18 13 3.2 8.0 0.00 0.00 0.00 70 1009.1
20260507161541 17 9 1.6 4.8 0.00 0.00 0.00 70 1009.6
20260507161057 17 251 3.2 8.0 0.00 0.00 0.00 70 1009.2
20260507160824 17 320 3.2 4.8 0.00 0.00 0.00 70 1009.2
20260507160057 17 178 1.6 4.8 0.00 0.00 0.00 71 1009.4
20260507160042 17 120 1.6 4.8 0.00 0.00 0.00 69 1009.9
20260507155559 17 223 1.6 4.8 0.00 0.00 0.00 70 1009.4
20260507155323 17 117 3.2 4.8 0.00 0.00 0.00 69 1009.4
20260507154815 17 314 3.2 6.4 0.00 0.00 0.00 71 1009.5
20260507154758 17 213 3.2 6.4 0.00 0.00 0.00 69 1009.4
20260507154538 17 9 1.6 3.2 0.00 0.00 0.00 69 1009.9
20260507153555 17 45 3.2 6.4 0.00 0.00 0.00 72 1009.4
20260507153056 17 289 3.2 8.0 0.00 0.00 0.00 70 1009.3
20260507153038 17 271 1.6 9.7 0.00 0.00 0.00 71 1009.8
20260507152554 17 1 4.8 11.3 0.00 0.00 0.00 70 1009.3
20260507152055 17 327 4.8 11.3 0.00 0.00 0.00 73 1009.2
20260507151818 17 344 4.8 9.7 0.00 0.00 0.00 72 1009.1
20260507151538 16 227 8.0 9.7 0.00 0.00 0.00 74 1009.5
20260507151056 17 334 4.8 9.7 0.00 0.00 0.00 74 1009.1
20260507150821 16 341 3.2 8.0 0.00 0.00 0.00 74 1009.1
20260507150055 16 237 3.2 9.7 0.00 0.00 0.00 75 1009.1
20260507150040 16 296 3.2 8.0 0.00 0.00 0.00 78 1009.6
20260507145554 16 302 6.4 9.7 0.00 0.00 0.00 75 1009.2
20260507145055 16 314 4.8 9.7 0.00 0.00 0.00 77 1009.2
20260507144554 16 265 4.8 9.7 0.00 0.00 0.00 79 1009.2
20260507144539 -17 190 3.2 8.0 0.00 0.00 0.00 78 1009.7
20260507144055 16 302 3.2 9.7 0.00 0.00 0.00 78 1009.1
20260507143554 15 348 6.4 9.7 0.00 0.00 0.00 78 1009.2
20260507143056 16 1.6 4.8 0.00 0.00 0.00 76 1009.9
20260507142553 16 331 3.2 6.4 0.00 0.00 0.00 77 1009.7
20260507142055 16 324 1.6 4.8 0.00 0.00 0.00 76 1010.0
20260507141553 16 0 0.0 3.2 0.00 0.00 0.00 95 1010.7
20260507141055 16 314 1.6 4.8 0.00 0.00 0.00 75 1010.1
20260507140552 16 269 1.6 9.7 0.00 0.00 0.00 75 1010.1
20260507140318 16 344 4.8 9.7 0.00 0.00 0.00 75 1010.1
20260507140037 16 277 3.2 4.8 0.00 0.00 0.00 75 1010.7
20260507135553 16 334 3.2 9.7 0.00 0.00 0.00 75 1010.0
20260507135053 16 320 6.4 11.3 0.00 0.00 0.00 74 1009.8
20260507134813 16 168 4.8 11.3 0.00 0.00 0.00 74 1009.9
20260507134542 16 277 4.8 8.0 0.00 0.00 0.00 75 1010.4
20260507134053 16 89 4.8 14.5 0.00 0.00 0.00 75 1009.9
20260507133553 16 213 4.8 14.5 0.00 0.00 0.00 76 1009.8
20260507133317 16 319 4.8 14.5 0.00 0.00 0.00 74 1009.7
20260507133041 16 305 6.4 8.0 0.00 0.00 0.00 75 1010.2
20260507132552 17 314 4.8 16.1 0.00 0.00 0.00 75 1009.7
20260507132053 17 272 6.4 19.3 0.00 0.00 0.00 74 1009.6
20260507131552 17 344 8.0 19.3 0.00 0.00 0.00 76 1009.7
20260507131549 16 305 8.0 14.5 0.00 0.00 0.00 75 1010.1
20260507131053 17 330 9.7 20.9 0.00 0.00 0.00 75 1009.5
20260507130551 17 327 6.4 20.9 0.00 0.00 0.00 75 1009.6
20260507130314 17 269 8.0 14.5 0.00 0.00 0.00 73 1009.7
20260507130043 16 265 3.2 9.7 0.00 0.00 0.00 75 1010.1
20260507125551 17 336 6.4 14.5 0.00 0.00 0.00 75 1009.7
20260507125052 17 234 8.0 19.3 0.00 0.00 0.00 76 1009.7
20260507124551 17 326 9.7 19.3 0.00 0.00 0.00 76 1009.8
20260507124538 16 293 11.3 11.3 0.00 0.00 0.00 77 1010.3
20260507124052 16 345 8.0 16.1 0.00 0.00 0.00 75 1009.8
20260507123550 16 306 9.7 17.7 0.00 0.00 0.00 77 1009.8
20260507123312 16 269 11.3 20.9 0.00 0.00 0.00 77 1009.9
20260507123050 16 351 12.9 22.5 0.00 0.00 0.00 76 1010.4
20260507122550 16 4 11.3 20.9 0.00 0.00 0.00 76 1009.9